{"data":{"norad_id":64939,"intl_designator":"2025-158H","name":"STARLINK-34714","alt_names":[],"object_type":"PAYLOAD","status":"ACTIVE","operator":null,"country":"US","launch_date":"2025-07-27","launch_site_code":"AFWTR","launch_vehicle":null,"mission":null,"orbit_class":"UNKNOWN","rcs_meters":null,"size_class":null,"mass_kg":null,"dimensions":null,"purposes":["comms"],"wikipedia_slug":null,"has_3d_model":false,"image_url":null,"decayed_at":null,"tle_current":{"epoch":"2026-09-20T14:19:21.146592Z","epoch_age_seconds":115925,"freshness":"FRESH","line1":"1 64939U 25158H   26263.59677253  .00015277  00000+0  47432-3 0  9999","line2":"2 64939  97.2820 121.9460 0002673  87.8074 272.3475 15.33458571 64569","mean_motion":15.33458571,"eccentricity":0.0002673,"inclination_deg":97.282,"raan_deg":121.946,"arg_perigee_deg":87.8074,"mean_anomaly_deg":272.3475,"bstar":0.00047432,"rev_number":6456,"period_min":93.905373593559,"perigee_km":463.67349211018,"apogee_km":467.33210194567,"semimajor_km":6843.6397970279,"source":"CELESTRAK","updated_at":"2026-09-21T09:00:35.487340Z"}}}